Regional Weather Roundup
Issued by NWS

Home | Current Version | Previous Version | Graphics & Text | Print | Product List | Glossary On
Versions: 1 2 3 4 5 6 7 8 9 10 11 12 13 14 15 16 17 18 19 20 21 22 23 24 25 26 27 28 29 30 31 32 33 34 35 36 37 38 39 40 41 42 43 44 45 46 47 48 49 50
913
ASUS44 KLIX 060205
RWRLA
LOUISIANA WEATHER ROUNDUP
NATIONAL WEATHER SERVICE NEW ORLEANS LA
800 PM CST THU MAR 05 2015

NOTE: "FAIR" INDICATES FEW OR NO CLOUDS BELOW 12,000 FEET WITH NO
      SIGNIFICANT WEATHER AND/OR OBSTRUCTIONS TO VISIBILITY.
      SKY/WX - SKY CONDITION AND SIGNIFICANT WEATHER.
      TMP - AIR TEMPERATURE.    DP   - DEWPOINT TEMPERATURE.
      RH  - RELATIVE HUMIDITY.  PRES - PRESSURE.
      HX  - HEAT INDEX.         WCI  - WIND CHILL INDEX.

*  THESE STATIONS ARE NOT NWS OR FAA STATIONS AND ARE NOT UNDER
   NWS QUALITY CONTROL.

LAZ040-048-061>063-065-066-069-060300-
SOUTHEAST LOUISIANA

CITY           SKY/WX    TMP DP  RH WIND       PRES   REMARKS
N.O. AUDUBON   NOT AVBL
N.O. INTL ARPT CLOUDY    38  27  64 N16G30    30.42R WCI  29
N.O. LAKEFRONT CLOUDY    41  29  62 N24G36    30.43R
SLIDELL        CLOUDY    37  27  67 N15G22    30.40R WCI  28
BATON ROUGE    PTCLDY    33  21  61 N9G20     30.48R WCI  25
BOOTHVILLE     CLOUDY    44  36  73 N17G26    30.35R
BELLE CHASSE   MOCLDY    39  28  64 N15G30    30.40R WCI  31
BOGALUSA*        N/A     35  26  70 N15       30.45R WCI  25
GALLIANO*      CLOUDY    42  33  71 N18G28    30.39R
NEW ROADS*     FAIR      33  18  53 N15G24    30.50R WCI  23
GONZALES*      CLOUDY    35  23  62 N14G20    30.45R WCI  26
HAMMOND*       PTCLDY    34  23  64 N16G24    30.46R WCI  23
HOUMA*         CLOUDY    38  28  69 N18G28    30.40R WCI  28
PORT FOURCHON* CLOUDY    43  34  70 N25G33    30.40R

$$

LAZ041-044-053-054-060300-
SOUTHWEST LOUISIANA

CITY           SKY/WX    TMP DP  RH WIND       PRES   REMARKS
LAKE CHARLES   CLEAR     38  27  64 NE10      30.50R WCI  31
LAFAYETTE      PTCLDY    35  23  61 N14       30.48R WCI  26
PATTERSON      CLOUDY    37  21  52 N17G28    30.44R WCI  28
SALT POINT       N/A     38  25  59 N10G21    30.42R WCI  31
NEW IBERIA     NOT AVBL
CHENAULT AIRPK CLEAR     37  25  60 N9        30.50R WCI  31

$$

LAZ027-028-060300-
CENTRAL LOUISIANA

CITY           SKY/WX    TMP DP  RH WIND       PRES   REMARKS
FORT POLK      CLEAR     34  21  58 N8        30.51R WCI  28
ALEXANDRIA INT CLEAR     34  20  56 N6        30.52R WCI  29
ALEXANDRIA     CLEAR     34  20  56 VRB3      30.53R

$$

LAZ001-002-060300-
NORTHWEST LOUISIANA

CITY           SKY/WX    TMP DP  RH WIND       PRES   REMARKS
SHREVEPORT     CLEAR     35  21  56 NE7       30.56R WCI  29
BARKSDALE AFB  CLEAR     33  21  61 NE3       30.56R
DTN SHREVEPORT CLEAR     35  18  49 N3        30.57R

$$

LAZ014-016-060300-
NORTHEAST LOUISIANA

CITY           SKY/WX    TMP DP  RH WIND       PRES   REMARKS
MONROE         CLEAR     30  18  60 NE7       30.57R WCI  23
TALLULAH       CLEAR     30  16  56 N14       30.55R WCI  19

$$




USA.gov is the U.S. government's official web portal to all federal, state and local government web resources and services.